Location: Vancouver
(49.2500°N, 123.1330°W)
Time: 07:37:23
(UTC-07:00)

Daily predictions for brighter satellites

Satellite Brightness Start Highest point End
(mag) Time Altitude Azimuth Time Altitude Azimuth Time Altitude Azimuth
NOSS 3-3 (A) 4.3 20:45:51 10° SW 20:52:01 79° NW 20:58:54 10° NE
NOSS 3-3 (C) 4.3 20:45:57 10° SW 20:52:07 80° NW 20:59:01 10° NE
Cosmos 1470 Rocket 3.8 20:48:57 10° NNW 20:53:23 79° W 20:57:49 10° S
ERS-1 Rocket 4.4 20:50:48 10° ESE 20:54:40 23° ENE 20:58:32 10° N
Lacrosse 5 2.7 20:51:59 10° NW 20:56:52 45° NNE 21:01:44 10° E
Cosmos 1980 3.7 20:52:12 10° SSW 20:57:52 81° ESE 21:03:35 10° NNE
Cosmos 407 Rocket 3.5 20:56:38 10° NNW 21:01:48 76° ENE 21:06:55 10° SSE
Cosmos 1441 Rocket 4.4 20:59:07 10° SE 21:02:07 23° E 21:05:09 10° NE
Cosmos 2369 Rocket 3.7 20:57:39 10° NNW 21:02:17 24° NE 21:06:51 10° E
Cosmos 2297 3.8 20:58:30 10° NNW 21:04:13 79° ENE 21:09:56 10° SSE
CZ-4C R/B 3.5 21:02:53 10° SSE 21:06:13 17° ESE 21:09:49 10° ENE
BREEZE-M DEB (TANK) 3.0 21:02:20 10° WNW 21:06:20 41° SSW 21:08:21 11° SE
Cosmos 1869 3.4 21:05:03 10° S 21:09:00 60° E 21:12:59 10° NNE
Cosmos 1151 Rocket 3.1 21:06:48 10° SSW 21:11:04 82° WNW 21:15:24 10° N
Cosmos 1825 2.5 21:08:44 10° NNW 21:12:23 64° W 21:16:00 10° S
NOSS 0 Rocket 4.2 21:06:31 10° SW 21:12:41 78° WNW 21:18:57 10° NNE
Cosmos 2219 Rocket 3.4 21:10:32 10° SW 21:15:58 47° NW 21:21:25 10° NNE
ATLAS 5 CENTAUR R/B 3.2 21:10:49 10° NW 21:16:02 38° NNE 21:21:52 10° ESE
Cosmos 1939 Rocket 3.7 21:13:36 10° S 21:17:20 50° W 21:21:09 10° NNW
Cosmos 2333 Rocket 3.2 21:12:50 10° SW 21:18:21 52° NW 21:23:53 10° NNE
BREEZE-M DEB (TANK) 2.5 21:12:56 10° W 21:20:28 85° N 21:23:06 10° E
Resurs 01 Rocket 2.3 21:16:42 10° S 21:21:04 58° W 21:25:27 10° NNW
Cosmos 2344 4.2 21:14:28 10° S 21:21:05 33° ESE 21:28:16 10° NE
Cosmos 1371 Rocket 4.0 21:18:19 10° SSW 21:23:39 85° ESE 21:29:04 10° NNE
Cosmos 2237 Rocket 2.5 21:18:28 10° SW 21:24:06 73° WNW 21:29:46 10° NNE
Cosmos 405 Rocket 3.2 21:22:26 10° SSE 21:25:58 38° E 21:29:35 10° NNE
Helios 1A 4.3 21:23:21 13° ESE 21:26:12 25° ENE 21:29:38 10° N
Cosmos 676 Rocket 4.0 21:21:46 10° NNW 21:27:03 78° ENE 21:32:01 11° SSE
USA 81 4.1 21:22:27 10° N 21:27:44 65° E 21:32:57 10° SSE
ATLAS CENTAUR R/B 3.1 21:24:44 10° WSW 21:28:10 33° NW 21:31:48 10° NNE
USA 234 4.2 21:24:10 10° ENE 21:30:20 45° N 21:36:29 10° WNW
Cosmos 2278 Rocket 3.9 21:25:41 10° NW 21:30:34 30° WSW 21:35:25 10° SSW
H-2A R/B 2.2 21:33:17 14° SE 21:37:23 51° ENE 21:42:11 10° N
Cosmos 1727 Rocket 4.0 21:31:28 10° N 21:37:41 86° W 21:43:51 10° S
SL-8 R/B 3.6 21:33:06 10° WSW 21:37:52 72° SSE 21:42:40 10° E
Cosmos 1707 Rocket 3.9 21:35:26 10° SSE 21:39:32 44° E 21:43:41 10° NNE
Cosmos 2056 Rocket 3.7 21:39:13 10° SSW 21:44:39 83° WNW 21:50:04 10° NNE
Cosmos 1140 Rocket 3.5 21:39:27 10° NNW 21:44:40 89° WSW 21:48:58 15° SSE
Cosmos 1869 Rocket 3.6 21:40:31 10° N 21:44:54 85° W 21:49:04 11° S
Cosmos 1452 Rocket 3.8 21:40:15 10° S 21:45:12 44° ESE 21:50:11 10° NE
Cosmos 1437 Rocket 3.4 21:45:29 10° N 21:49:09 38° ENE 21:51:06 23° SE
Cosmos 1733 Rocket 3.8 21:47:58 10° N 21:52:04 37° ENE 21:54:14 22° SE
Cosmos 1850 Rocket 4.2 21:47:39 10° NNW 21:52:43 54° ENE 21:55:59 21° SE
Cosmos 405 4.3 21:50:08 10° NNW 21:53:25 38° W 21:56:40 10° SSW
MetOp-B 4.1 21:49:35 15° SSE 21:54:06 80° ENE 21:59:29 10° NNW
Meteor 2-10 Rocket 4.0 21:48:37 10° SSW 21:54:24 75° WNW 22:00:16 10° N
Cosmos 1943 Rocket 3.0 21:54:23 10° NNW 21:59:35 39° NE 22:02:56 20° ESE
ARGOS 3.2 21:55:42 14° SSE 22:00:26 83° WSW 22:05:51 10° NNW
Cosmos 1862 3.9 21:56:35 10° NNW 22:00:33 56° W 22:04:11 12° S
Cosmos 1954 Rocket 4.3 21:56:58 10° NNW 22:02:05 64° WSW 22:06:08 16° S
Cosmos 1741 Rocket 4.1 21:58:52 10° NNW 22:04:08 65° ENE 22:07:15 24° SE
Terra 3.0 22:02:10 20° ESE 22:04:21 28° ENE 22:08:24 10° N
BREEZE M DEB (TANK) 4.2 21:45:30 10° WSW 22:04:28 86° SSE 22:09:19 10° E
SL-08 RB Rocket 3.6 22:03:48 20° SSE 22:06:55 88° W 22:11:25 10° NNW
Cosmos 2098 Rocket 4.2 22:05:18 10° SW 22:08:58 35° WNW 22:12:03 10° N
RESURS DK-1 2.8 22:10:49 10° NNW 22:14:54 51° NE 22:16:32 31° ESE
SL-16 R/B 2.6 22:11:52 10° SW 22:17:30 67° WNW 22:23:10 10° NNE
Helios 1B rocket 3.0 22:18:28 10° NNE 22:22:20 38° E 22:23:01 35° ESE
Meteor 1-29 4.2 22:22:57 10° NE 22:25:19 26° ENE 22:25:19 26° ENE
GENESIS II 4.3 22:23:06 10° NW 22:26:53 62° SW 22:28:00 40° S
Cosmos 1605 Rocket 4.4 22:28:35 28° SE 22:31:34 47° E 22:37:39 10° NNE
Meteor 1-4 Rocket 2.3 22:29:37 10° N 22:33:02 67° ENE 22:33:27 59° ESE
ERS-1 Rocket 3.3 22:29:48 21° S 22:33:04 60° WSW 22:38:03 10° NNW
Cosmos 1606 3.4 22:33:51 36° E 22:33:55 36° E 22:37:33 10° NNE
Cosmos 1633 2.4 22:32:27 10° N 22:36:02 75° E 22:36:36 58° SE
USA 267 4.1 22:30:58 10° ENE 22:35:30 26° ESE 22:35:30 26° ESE
Cosmos 389 Rocket 3.6 22:33:52 10° N 22:36:44 28° ENE 22:36:44 28° ENE
Lacrosse 5 1.9 22:35:03 10° WNW 22:40:05 67° SW 22:41:51 39° SSE
Cosmos 2242 Rocket 3.4 22:39:19 37° S 22:41:02 77° E 22:45:27 10° NNE
USA 245 3.8 22:42:34 28° W 22:42:34 28° W 22:44:18 10° NW
Cosmos 1420 Rocket 4.2 22:38:35 10° SSW 22:43:55 77° WNW 22:49:16 10° NNE
SPOT 5 2.7 22:42:29 35° S 22:44:18 72° WSW 22:48:41 10° NNW
Cosmos 1943 3.5 22:42:40 35° SSE 22:44:25 46° ESE 22:49:49 10° NE
Cosmos 1603 3.6 22:39:47 12° SSW 22:45:00 76° ESE 22:50:38 10° NNE
Cosmos 2369 Rocket 2.2 22:41:15 10° NNW 22:46:59 80° WSW 22:49:22 36° SSE
Cosmos 1703 Rocket 4.5 22:47:12 31° E 22:47:12 31° E 22:50:56 10° NNE
Cosmos 921 Rocket 2.9 22:46:23 43° S 22:47:44 73° ESE 22:52:01 10° NNE
CZ-2C R/B 3.9 22:43:33 10° NE 22:47:55 24° E 22:48:06 24° E
Cosmos 1908 Rocket 3.7 22:45:10 10° N 22:49:36 61° ENE 22:50:30 49° SE
Cosmos 1934 Rocket 3.9 22:48:14 23° S 22:52:11 90° WNW 22:58:16 10° N
Spot 1 4.3 22:51:35 41° S 22:53:15 81° WSW 22:57:52 10° NNW
CZ-4C R/B 2.1 22:48:21 10° SW 22:53:40 89° ESE 22:59:53 10° NE
SL-19 R/B 4.3 22:52:19 34° S 22:54:52 75° WSW 23:00:35 10° NNW
Cosmos 1862 Rocket 3.5 22:54:54 40° SSW 22:56:27 84° W 23:00:51 10° N
Cosmos 2263 4.1 22:51:52 10° NNW 22:57:31 88° WSW 22:59:28 43° SSE
ATLAS 5 CENTAUR R/B 2.5 22:55:21 10° NW 23:01:09 66° SW 23:03:33 39° SSE
Cosmos 1461 3.1 22:56:35 10° NW 23:01:25 80° NE 23:02:28 54° SE
Helios 1A 4.1 22:59:58 27° SW 23:01:37 38° W 23:05:32 10° NNW
GEOS 3 Rocket 3.7 22:58:33 10° NE 23:03:49 54° SE 23:05:08 43° S
Cosmos 1782 2.7 23:05:05 67° E 23:05:05 67° E 23:09:02 10° NNE
Meteor 1-11 Rocket 4.2 23:00:42 10° N 23:06:05 45° ENE 23:07:28 38° ESE
SPOT 1/Viking Rocket 4.2 23:06:53 30° SSW 23:09:11 50° W 23:14:17 10° NNW
Cosmos 1271 Rocket 3.9 23:08:38 10° N 23:12:04 33° ENE 23:12:04 33° ENE
CZ-2C R/B 2.9 23:11:25 55° SE 23:12:19 70° ENE 23:17:13 10° N
USA 234 3.6 23:08:13 20° E 23:12:49 63° NNE 23:19:17 10° WNW
Cosmos 1602 3.8 23:09:02 10° N 23:12:53 64° ENE 23:12:53 64° ENE
DMSP B5D2-2 4.5 23:09:29 10° N 23:14:42 63° WNW 23:17:57 23° SW
Cosmos 1110 Rocket 4.0 23:14:35 52° SSE 23:15:40 66° ESE 23:20:57 10° NNE
Meteor 1-27 Rocket 4.3 23:16:20 38° ESE 23:17:01 40° E 23:22:21 10° NNE
IGS 5A 3.7 23:16:30 53° SW 23:17:05 60° W 23:21:14 10° NNW
H-2A R/B 3.8 23:13:53 13° SW 23:17:07 23° W 23:21:04 10° NW
SL-8 R/B 3.5 23:15:34 10° W 23:20:23 79° S 23:20:57 67° SE
Cosmos 1536 4.1 23:17:11 10° N 23:20:24 30° ENE 23:20:24 30° ENE
Cosmos 1153 Rocket 4.5 23:19:06 43° SSE 23:21:15 73° E 23:27:36 10° NNE
ALOS 2 4.4 23:21:25 20° ENE 23:21:56 20° ENE 23:25:08 10° NNE
SAR-Lupe-4 4.0 23:24:17 57° NNE 23:24:17 57° NNE 23:27:19 10° N
CARTOSAT-1 4.3 23:33:04 39° WSW 23:33:41 42° W 23:37:48 10° NNW
Cosmos 2344 4.0 23:27:13 10° WSW 23:34:49 66° NW 23:43:52 10° NE
Okean 1-7 3.1 23:36:04 64° NE 23:36:04 64° NE 23:39:50 10° NNE
Cosmos 2100 Rocket 4.1 23:34:22 49° SE 23:35:46 60° E 23:42:03 10° NNE
Cosmos 1802 Rocket 4.2 23:40:18 47° ESE 23:41:14 52° E 23:47:15 10° NNE
Terra 2.6 23:41:03 38° SW 23:41:56 42° W 23:46:29 10° NNW
Cosmos 1656 Rocket 3.6 23:37:16 10° NNW 23:43:00 90° WNW 23:43:59 63° SSE
Cosmos 1943 Rocket 2.9 23:38:12 10° NW 23:43:22 41° WSW 23:44:28 37° SW
Cosmos 2061 Rocket 4.2 23:46:47 51° SE 23:47:58 59° E 23:54:17 10° NNE
Gblst 52 Del rocket 4.0 23:44:57 10° WSW 23:50:27 89° NNW 23:56:09 10° ENE
Cosmos 1354 Rocket 4.2 23:46:31 10° NNW 23:51:44 60° ENE 23:52:19 56° E
RESURS DK-1 4.3 23:49:35 10° WNW 23:52:27 20° WSW 23:52:27 20° WSW
Meteor 2-6 Rocket 4.4 23:51:35 47° SSW 23:53:19 73° WNW 23:59:18 10° N
